DW0249 Weather Reports


time (UTC)temp
C
wind
direction
speed
KPH
gust
KPH
rain 1hr
cm
rain 24hr
cm
rain mn
cm
humidity
%
barometer
mb
20260507014517 14 180 1.6 12.9 0.00 0.00 0.00 100 1020.5
20260507013537 14 0.0 6.4 0.00 0.00 0.00 100 1020.5
20260507012517 14 0.0 1.6 0.00 0.00 0.00 100 1020.6
20260507011517 14 0.0 0.0 0.00 0.00 0.00 100 1020.6
20260507010517 15 158 1.6 6.4 0.00 0.00 0.00 100 1020.6
20260507005517 15 0.0 3.2 0.00 0.00 0.00 100 1020.6
20260507004517 15 135 1.6 6.4 0.00 0.00 0.00 100 1020.5
20260507003517 14 0.0 3.2 0.00 0.00 0.00 100 1020.4
20260507002517 14 315 1.6 6.4 0.00 0.00 0.00 100 1020.6
20260507001537 14 0 1.6 4.8 0.00 0.00 0.00 100 1020.5
20260507000517 14 315 1.6 6.4 0.00 0.00 0.00 100 1020.6
20260506235517 14 0.0 3.2 0.00 0.00 0.00 100 1020.6
20260506234517 14 135 1.6 8.0 0.00 0.00 0.00 100 1020.8
20260506233517 14 0.0 1.6 0.00 0.00 0.00 100 1020.8
20260506232557 14 0.0 4.8 0.00 0.00 0.00 100 1020.9
20260506231516 15 0.0 4.8 0.00 0.00 0.00 100 1020.9
20260506230517 15 293 1.6 11.3 0.00 0.00 0.00 100 1020.8
20260506225537 15 0.0 4.8 0.00 0.00 0.00 100 1020.8
20260506224516 15 0.0 3.2 0.00 0.00 0.00 100 1020.8
20260506223516 15 0.0 3.2 0.00 0.00 0.00 100 1020.9
20260506222537 15 135 1.6 6.4 0.00 0.00 0.00 100 1020.9
20260506221516 14 158 1.6 4.8 0.00 0.00 0.00 100 1020.8
20260506220516 14 248 1.6 8.0 0.00 0.00 0.00 100 1020.9
20260506215516 14 338 1.6 4.8 0.00 0.00 0.00 100 1020.9
20260506214517 14 0.0 3.2 0.00 0.00 0.00 100 1021.0
20260506213516 14 135 1.6 4.8 0.00 0.00 0.00 100 1021.0
20260506212516 14 0.0 6.4 0.00 0.00 0.00 100 1021.0
20260506211516 14 23 1.6 8.0 0.00 0.00 0.00 100 1021.0
20260506210517 14 0.0 4.8 0.00 0.00 0.00 100 1020.9
20260506205516 14 315 1.6 6.4 0.00 0.00 0.00 100 1020.9
20260506204516 14 248 1.6 6.4 0.00 0.00 0.00 100 1020.9
20260506203516 14 270 1.6 8.0 0.00 0.00 0.00 100 1020.8
20260506202516 14 293 1.6 9.7 0.00 0.00 0.00 100 1020.8
20260506201516 14 158 1.6 6.4 0.00 0.00 0.00 100 1020.8
20260506200516 14 293 1.6 4.8 0.00 0.00 0.00 100 1020.7
20260506195516 14 0.0 4.8 0.00 0.00 0.00 100 1020.6
20260506194516 14 135 1.6 9.7 0.00 0.00 0.00 100 1020.7
20260506193536 14 0.0 3.2 0.00 0.00 0.00 100 1020.6
20260506192516 14 293 1.6 9.7 0.00 0.00 0.00 100 1020.6
20260506191516 14 45 1.6 6.4 0.00 0.00 0.00 100 1020.5
20260506190516 14 338 1.6 3.2 0.00 0.00 0.00 100 1020.4
20260506185516 14 158 1.6 8.0 0.00 0.00 0.00 100 1020.5
20260506184516 14 338 1.6 4.8 0.00 0.00 0.00 100 1020.5
20260506183516 14 293 3.2 9.7 0.00 0.00 0.00 100 1020.5
20260506182516 14 338 1.6 6.4 0.00 0.00 0.00 100 1020.5
20260506181536 14 158 1.6 6.4 0.00 0.00 0.00 100 1020.5
20260506180516 14 293 3.2 6.4 0.00 0.00 0.00 100 1020.2
20260506175516 14 315 1.6 6.4 0.00 0.00 0.00 100 1020.0
20260506174536 13 338 1.6 4.8 0.00 0.00 0.00 100 1020.2
20260506173515 13 0.0 4.8 0.00 0.00 0.00 100 1020.1
20260506172536 13 0.0 4.8 0.00 0.00 0.00 100 1020.1
20260506171515 13 225 1.6 4.8 0.00 0.00 0.00 100 1020.2
20260506170516 13 0.0 3.2 0.00 0.00 0.00 100 1020.3
20260506165515 13 0.0 1.6 0.00 0.00 0.00 100 1020.4
20260506164516 13 158 1.6 6.4 0.00 0.00 0.00 100 1020.4
20260506163536 13 0.0 3.2 0.00 0.00 0.00 100 1020.3
20260506162536 13 0.0 1.6 0.00 0.00 0.00 100 1020.0
20260506161516 12 0.0 4.8 0.00 0.00 0.00 100 1020.1
20260506160516 12 0.0 3.2 0.00 0.00 0.00 100 1019.9
20260506155516 12 0.0 0.0 0.00 0.00 0.00 100 1019.9
20260506154515 12 0.0 3.2 0.00 0.00 0.00 100 1019.8
20260506153516 12 0.0 3.2 0.00 0.00 0.00 100 1020.0
20260506152515 12 0.0 6.4 0.00 0.00 0.00 100 1020.0
20260506151516 12 0.0 1.6 0.00 0.00 0.00 100 1019.9
20260506150515 12 0.0 3.2 0.00 0.00 0.00 100 1019.9
20260506145515 12 158 1.6 4.8 0.00 0.00 0.00 100 1019.9
20260506144515 12 338 1.6 6.4 0.00 0.00 0.00 100 1019.8
20260506143515 12 0.0 4.8 0.00 0.00 0.00 100 1019.8
20260506142515 12 0.0 3.2 0.00 0.00 0.00 100 1019.8
20260506141535 11 0.0 1.6 0.00 0.00 0.00 100 1019.4
20260506140537 11 0.0 0.0 0.00 0.00 0.00 100 1019.6
20260506135517 11 0.0 3.2 0.00 0.00 0.00 100 1019.5
20260506134517 11 0.0 0.0 0.00 0.00 0.00 100 1019.5
20260506133517 11 0.0 0.0 0.00 0.00 0.00 100 1019.4
20260506132517 11 0.0 1.6 0.00 0.00 0.00 100 1019.5
20260506131517 11 0.0 1.6 0.00 0.00 0.00 100 1019.5
20260506130517 11 0.0 1.6 0.00 0.00 0.00 100 1019.4
20260506125537 11 0.0 0.0 0.00 0.00 0.00 100 1019.1
20260506124517 11 0.0 0.0 0.00 0.00 0.00 100 1019.1
20260506123517 11 0.0 0.0 0.00 0.00 0.00 100 1019.1
20260506122517 11 0.0 1.6 0.00 0.00 0.00 100 1019.1
20260506121517 12 0.0 1.6 0.00 0.00 0.00 100 1019.0
20260506120537 12 0.0 1.6 0.00 0.00 0.00 100 1019.0
20260506115517 12 0.0 0.0 0.00 0.00 0.00 100 1018.8
20260506114517 12 0.0 0.0 0.00 0.00 0.00 100 1018.8
20260506113517 12 0.0 1.6 0.00 0.00 0.00 100 1018.7
20260506112537 12 0.0 1.6 0.00 0.00 0.00 100 1018.6
20260506111537 12 0.0 3.2 0.00 0.00 0.00 100 1018.7
20260506110537 12 0.0 1.6 0.00 0.00 0.00 100 1018.6
20260506105517 12 0.0 0.0 0.00 0.00 0.00 100 1018.6
20260506104517 12 0.0 0.0 0.00 0.00 0.00 100 1018.5
20260506103517 12 0.0 1.6 0.00 0.00 0.00 100 1018.3
20260506102517 12 0.0 1.6 0.00 0.00 0.00 100 1018.4
20260506101517 12 0.0 0.0 0.00 0.00 0.00 100 1018.3
20260506100516 12 0.0 0.0 0.00 0.00 0.00 100 1018.2
20260506095516 12 0.0 0.0 0.00 0.00 0.00 100 1018.0
20260506094537 12 0.0 0.0 0.00 0.00 0.00 100 1017.9
20260506093517 12 0.0 0.0 0.00 0.00 0.00 100 1017.9
20260506092516 12 0.0 0.0 0.00 0.00 0.00 100 1017.9
20260506091516 12 0.0 0.0 0.00 0.00 0.00 100 1017.9
20260506090516 11 0.0 0.0 0.00 0.00 0.00 100 1017.8
20260506085516 11 0.0 0.0 0.00 0.00 0.00 100 1017.9
20260506084516 11 0.0 0.0 0.00 0.00 0.00 100 1017.7
20260506083516 11 0.0 0.0 0.00 0.00 0.00 100 1017.6
20260506082516 11 0.0 0.0 0.00 0.00 0.00 100 1017.6
20260506081536 11 0.0 0.0 0.00 0.00 0.00 100 1017.5
20260506080516 11 0.0 0.0 0.00 0.00 0.00 100 1017.4
20260506072516 11 0.0 0.0 0.00 0.00 0.00 100 1017.3
20260506071536 11 0.0 0.0 0.00 0.00 0.00 100 1017.1
20260506070536 12 0.0 1.6 0.00 0.00 0.00 100 1017.1
20260506062517 12 248 1.6 9.7 0.00 0.00 0.00 100 1016.7
20260506061517 12 0.0 1.6 0.00 0.00 0.00 100 1016.6
20260506060617 12 0.0 1.6 0.00 0.00 0.00 100 1016.5
20260506050516 13 0.0 0.0 0.00 0.00 0.00 100 1016.1
20260506044516 13 0.0 1.6 0.00 0.00 0.00 100 1016.2
20260506043536 14 0.0 1.6 0.00 0.00 0.00 100 1016.1
20260506042516 14 0.0 0.0 0.00 0.00 0.00 100 1016.0
20260506041536 14 0.0 1.6 0.00 0.00 0.00 100 1015.9
20260506040515 15 0.0 1.6 0.00 0.00 0.00 100 1015.8
20260506035536 15 0.0 0.0 0.00 0.00 0.00 100 1015.8
20260506034516 15 0.0 1.6 0.00 0.00 0.00 100 1015.6
20260506033515 15 0.0 0.0 0.00 0.00 0.00 100 1015.5
20260506032536 16 0.0 0.0 0.00 0.00 0.00 100 1015.4
20260506031516 16 0.0 3.2 0.00 0.00 0.00 100 1015.2
20260506030516 16 0.0 0.0 0.00 0.00 0.00 100 1015.3
20260506025515 17 0.0 3.2 0.00 0.00 0.00 100 1015.0
20260506024515 17 90 1.6 4.8 0.00 0.00 0.00 100 1015.1
20260506023516 17 0.0 3.2 0.00 0.00 0.00 100 1015.0
20260506022516 17 0.0 1.6 0.00 0.00 0.00 100 1014.9
20260506021536 18 0.0 1.6 0.00 0.00 0.00 100 1014.9
20260506020516 18 0.0 4.8 0.00 0.00 0.00 100 1015.0
20260506015516 18 0.0 1.6 0.00 0.00 0.00 100 1015.0